Voltar ao catálogo

STARLINK-6261

AtivoComunicaçõesVLEO
NORAD 56417·PAYLOAD·🇺🇸 United States

Lançado May 4, 2023 de Cape Canaveral Space Force Station

Loading…

Próximas Passagens (próximas 24 horas)

TLE

AtualizadoSource: CelesTrak SupGP

Época: Sep 14, 2026, 21:06 UTC

1 56417C 23061AV  26257.87965278  .00002393  00000+0  86678-4 0  2571
2 56417  43.0016 198.4773 0001683 267.2078 323.9233 15.27577694    17

Acompanhe STARLINK-6261 em tempo real com AllMySat

Download on the App Store